Middlesboro, KY

4:49 PM EDT on March 27, 2017 (GMT -0400)
Middlesboro

Weather History for K1A6 - April, 2013

Change the Weather History Date:

Friday, April 19, 2013

  Actual Average (KLOZ) Record (KLOZ)
Temperature  
Mean Temperature 58 °F -  
Max Temperature 72 °F 71 °F 87 °F (1970)
Min Temperature 42 °F 46 °F 24 °F (1983)
Degree Days  
Heating Degree Days 8    
Growing Degree Days 8 (Base 50)    
Moisture  
Dew Point 45 °F    
Average Humidity 68    
Maximum Humidity 90    
Minimum Humidity 53    
Precipitation  
Precipitation 0.73 in - - ()
Sea Level Pressure  
Sea Level Pressure 29.85 in    
Wind  
Wind Speed 7 mph (West)    
Max Wind Speed 16 mph    
Max Gust Speed 32 mph    
Visibility 9 miles    
Events Rain    
Averages and records for this station are not official NWS values.
T = Trace of Precipitation, MM = Missing Value Source: NWS Daily Summary

Daily Weather History Graph

Daily Weather History Graph

Search for Another Location

Airport or City:

Trip Planner

Search our weather history database for the weather conditions in past years. The results will help you decide how hot, cold, wet, or windy it might be!

Date:

Astronomy

Apr. 19, 2013 Rise Set
Actual Time 5:55 AM CDT 7:13 PM CDT
Civil Twilight 5:28 AM CDT 7:39 PM CDT
Nautical Twilight 4:56 AM CDT 8:12 PM CDT
Astronomical Twilight 4:23 AM CDT 8:45 PM CDT
Moon 1:06 PM CDT (4/19) 2:00 AM CDT (4/19)
Length of Visible Light 14h 11m
Length of Day
13h 17m
First Quarter, 62% of the Moon is Illuminated
Apr 19
First Quarter
Apr 25
Full
May 2
Last Quarter
May 9
New
May 17
First Quarter

Hourly Weather History & Observations

Time (CDT) Temp. Windchill Dew Point Humidity Pressure Visibility Wind Dir Wind Speed Gust Speed Precip Events Conditions
12:15 AM 72.0 °F - 54.1 °F 53% 29.78 in 10.0 mi Calm Calm - N/A   Clear
12:35 AM 71.8 °F - 54.1 °F 54% 29.77 in 10.0 mi Calm Calm - N/A   Clear
12:55 AM 71.6 °F - 54.1 °F 54% 29.72 in 10.0 mi Calm Calm - N/A   Clear
1:15 AM 71.4 °F - 54.3 °F 55% 29.73 in 10.0 mi SSW 5.8 mph - N/A   Clear
1:35 AM 71.4 °F - 54.5 °F 55% 29.72 in 10.0 mi South 5.8 mph - N/A   Clear
1:55 AM 71.4 °F - 54.3 °F 55% 29.70 in 10.0 mi SSE 10.4 mph 18.4 mph N/A   Clear
2:15 AM 71.8 °F - 53.8 °F 53% 29.70 in 10.0 mi South 16.1 mph 21.9 mph N/A   Clear
2:35 AM 71.6 °F - 54.0 °F 54% 29.68 in 10.0 mi South 9.2 mph 21.9 mph N/A   Clear
2:55 AM 71.4 °F - 54.0 °F 54% 29.69 in 10.0 mi South 8.1 mph 16.1 mph N/A   Clear
3:15 AM 71.6 °F - 54.0 °F 54% 29.69 in 10.0 mi South 3.5 mph 16.1 mph N/A   Clear
3:35 AM 70.9 °F - 54.5 °F 56% 29.68 in 10.0 mi South 8.1 mph - N/A   Clear
3:55 AM 71.2 °F - 54.7 °F 56% 29.68 in 10.0 mi South 4.6 mph - N/A   Mostly Cloudy
4:15 AM 71.6 °F - 55.0 °F 56% 29.67 in 10.0 mi SSE 3.5 mph - N/A   Overcast
4:35 AM 71.6 °F - 55.4 °F 57% 29.68 in 10.0 mi South 10.4 mph 19.6 mph N/A   Overcast
4:55 AM 70.9 °F - 57.2 °F 62% 29.67 in 10.0 mi South 6.9 mph - N/A Rain Rain
5:15 AM 68.5 °F - 59.7 °F 73% 29.70 in 5.0 mi WSW 5.8 mph - 0.05 in Rain Heavy Rain
5:55 AM 66.4 °F - 61.5 °F 84% 29.70 in 7.0 mi SSW 10.4 mph 18.4 mph 0.16 in Rain Heavy Rain
6:15 AM 65.5 °F - 61.9 °F 88% 29.70 in 4.0 mi South 10.4 mph 23.0 mph 0.07 in Rain Rain
6:35 AM 65.7 °F - 61.3 °F 86% 29.69 in 5.0 mi South 12.7 mph 32.2 mph 0.11 in Rain Light Rain
6:55 AM 65.3 °F - 61.7 °F 88% 29.69 in 3.0 mi South 11.5 mph 23.0 mph 0.16 in Rain Heavy Rain
7:15 AM 64.6 °F - 61.7 °F 90% 29.70 in 3.0 mi South 13.8 mph 23.0 mph 0.07 in Rain Heavy Rain
7:35 AM 64.4 °F - 61.5 °F 90% 29.71 in 5.0 mi South 12.7 mph 20.7 mph 0.13 in Rain Rain
7:55 AM 63.1 °F - 58.5 °F 85% 29.74 in 2.5 mi West 11.5 mph 18.4 mph 0.23 in Rain Heavy Rain
8:15 AM 59.2 °F - 55.6 °F 88% 29.74 in 3.0 mi West 12.7 mph - 0.06 in Rain Heavy Rain
8:35 AM 57.9 °F - 54.5 °F 88% 29.75 in 10.0 mi West 10.4 mph 16.1 mph 0.10 in Rain Light Rain
8:55 AM 57.0 °F - 53.1 °F 87% 29.76 in 7.0 mi West 12.7 mph 24.2 mph 0.11 in Rain Light Rain
9:15 AM 55.9 °F - 51.8 °F 86% 29.77 in 10.0 mi West 8.1 mph 17.3 mph 0.01 in Rain Light Rain
9:55 AM 52.7 °F - 49.3 °F 88% 29.81 in 4.0 mi NW 10.4 mph - 0.05 in Rain Heavy Rain
10:15 AM 51.8 °F - 47.5 °F 85% 29.81 in 7.0 mi WNW 8.1 mph - 0.02 in Rain Light Rain
10:35 AM 51.8 °F - 46.4 °F 82% 29.83 in 10.0 mi WNW 8.1 mph 16.1 mph 0.02 in   Overcast
10:55 AM 51.1 °F - 45.7 °F 82% 29.83 in 10.0 mi NW 5.8 mph - 0.02 in   Overcast
11:15 AM 50.2 °F - 45.5 °F 84% 29.84 in 10.0 mi North 3.5 mph - N/A   Overcast
11:35 AM 50.4 °F - 45.5 °F 83% 29.85 in 10.0 mi NW 10.4 mph - N/A   Overcast
11:55 AM 50.2 °F - 45.3 °F 83% 29.86 in 10.0 mi NNW 4.6 mph - N/A   Overcast
12:15 PM 50.0 °F - 44.6 °F 82% 29.88 in 10.0 mi NNW 8.1 mph - N/A   Overcast
12:35 PM 50.0 °F - 45.0 °F 83% 29.86 in 10.0 mi North 6.9 mph - N/A   Overcast
12:55 PM 50.0 °F - 43.9 °F 79% 29.86 in 10.0 mi North 4.6 mph - N/A   Overcast
1:15 PM 50.7 °F - 43.2 °F 75% 29.86 in 10.0 mi NNW 10.4 mph - N/A   Overcast
1:35 PM 50.4 °F - 42.6 °F 75% 29.88 in 10.0 mi NW 6.9 mph - N/A   Overcast
1:55 PM 50.5 °F - 42.6 °F 74% 29.88 in 10.0 mi NNW 3.5 mph - N/A   Overcast
2:15 PM 50.5 °F - 41.4 °F 71% 29.90 in 10.0 mi WNW 13.8 mph - N/A   Overcast
2:35 PM 50.7 °F - 40.3 °F 67% 29.90 in 10.0 mi WNW 8.1 mph - N/A   Overcast
2:55 PM 50.9 °F - 39.9 °F 66% 29.90 in 10.0 mi WNW 8.1 mph - N/A   Overcast
3:15 PM 50.5 °F - 39.6 °F 66% 29.90 in 10.0 mi WNW 5.8 mph - N/A   Overcast
3:35 PM 50.0 °F - 39.2 °F 66% 29.91 in 10.0 mi NW 6.9 mph - N/A   Overcast
3:55 PM 50.0 °F - 38.7 °F 65% 29.91 in 10.0 mi WNW 6.9 mph - N/A   Overcast
4:15 PM 50.0 °F - 38.8 °F 66% 29.91 in 10.0 mi WNW 6.9 mph 17.3 mph N/A   Overcast
4:35 PM 50.2 °F - 37.2 °F 61% 29.91 in 10.0 mi WSW 5.8 mph - N/A   Overcast
4:55 PM 50.7 °F - 37.2 °F 60% 29.92 in 10.0 mi West 6.9 mph - N/A   Overcast
5:15 PM 51.4 °F - 36.7 °F 57% 29.92 in 10.0 mi West 4.6 mph - N/A   Overcast
5:35 PM 51.4 °F - 36.3 °F 56% 29.92 in 10.0 mi WNW 10.4 mph - N/A   Overcast
5:55 PM 50.2 °F - 35.6 °F 57% 29.93 in 10.0 mi WNW 8.1 mph - N/A   Overcast
6:15 PM 50.2 °F - 35.4 °F 57% 29.93 in 10.0 mi West 6.9 mph - N/A   Overcast
6:35 PM 49.3 °F - 34.2 °F 56% 29.94 in 10.0 mi West 6.9 mph - N/A   Mostly Cloudy
6:55 PM 48.6 °F - 34.0 °F 57% 29.95 in 10.0 mi NW 4.6 mph - N/A   Mostly Cloudy
7:15 PM 48.2 °F - 33.8 °F 58% 29.97 in 10.0 mi West 5.8 mph - N/A   Overcast
7:35 PM 48.2 °F - 34.3 °F 59% 29.98 in 10.0 mi WNW 5.8 mph - N/A   Overcast
7:55 PM 47.7 °F - 34.2 °F 60% 29.99 in 10.0 mi Calm Calm - N/A   Overcast
8:15 PM 47.8 °F - 34.2 °F 59% 30.00 in 10.0 mi NW 4.6 mph - N/A   Overcast
8:35 PM 47.5 °F - 33.8 °F 59% 30.01 in 10.0 mi NW 10.4 mph 17.3 mph N/A   Overcast
8:55 PM 46.9 °F - 34.0 °F 61% 30.02 in 10.0 mi NW 9.2 mph - N/A   Overcast
9:15 PM 46.6 °F - 33.8 °F 61% 30.03 in 10.0 mi NW 6.9 mph - N/A   Overcast
9:35 PM 46.0 °F 43.1 °F 33.6 °F 62% 30.05 in 10.0 mi WNW 5.8 mph - N/A   Overcast
9:55 PM 45.9 °F 41.2 °F 33.1 °F 61% 30.06 in 10.0 mi WNW 9.2 mph - N/A   Overcast
10:15 PM 45.5 °F 40.8 °F 32.4 °F 60% 30.07 in 10.0 mi NW 9.2 mph - N/A   Overcast
10:35 PM 45.5 °F 40.3 °F 32.7 °F 61% 30.08 in 10.0 mi WNW 10.4 mph - N/A   Overcast
10:55 PM 44.6 °F 37.8 °F 31.8 °F 61% 30.09 in 10.0 mi NW 15.0 mph - N/A   Overcast
11:15 PM 43.7 °F 37.3 °F 30.0 °F 59% 30.10 in 10.0 mi North 12.7 mph 16.1 mph N/A   Overcast
11:35 PM 43.5 °F 39.4 °F 29.8 °F 59% 30.11 in 10.0 mi NNW 6.9 mph - N/A   Overcast
11:55 PM 42.8 °F 37.0 °F 27.9 °F 56% 30.12 in 10.0 mi WNW 10.4 mph 16.1 mph N/A   Mostly Cloudy